CZ-4B DEB, 44592

Orbit data source: Space-Track

CZ-4B DEB, 44592 is space debris in SSO originally from a launch on Tue, 27 May 2008 UTC launched from the Taiyaun Space Center, China (TSC). Debris objects in space refer to the collection of defunct objects orbiting the Earth. Examples of debris include non-operational satellites, rocket bodies, and fragments generated from explosions, collisions, or faulty payload assembly.

Loading next visibility...
Identifier
44592, 2008-026G
Orbit
SSO
Country
Flag of CNCN / PRC
Related business
Manufacturer
Unknown
Mission
Spacecraft
Bus & Motor
Unknown
Mass
Unknown
Launch date (UTC)
2008-05-27 (18 years ago)
Launch vehicle
Unknown
Launch site
Taiyaun Space Center, China (TSC)
Object type
Payload
Rocket body
Debris
Shape & HBR
Unknown shape, 0.1 m
Radar Cross Section
Small (<0.1 m²)

Expand to show TLE details & history
Last TLE update: 2 days ago

TLE from 2 days ago
0 CZ-4B DEB
1 44592U 08026G   26171.47909693  .00000073  00000-0  35732-4 0  9998
2 44592  98.8550 243.0763 0067863 262.3203  97.0275 14.42911686661919
Epoch: 2026-06-20T11:29Z
TLE epoch observation values (Epoch: 2026-06-20T11:29:53.974Z)
Latitude
-0.00006°
Longitude
161.90829°
Altitude
758.077 km
Speed
7.472 km/s
True Right ascension
16h 12m 18s
True Declination
0° 00' 00"
Sunlit
Object was in full shadow at epoch
Visualization orbit readout
Latitude
Unknown
Longitude
Unknown
Altitude
Unknown
Speed
Unknown
Apparent Right ascension
Unknown
Apparent Declination
Unknown
Sunlit
N/A
Visualization observer readout
Local Sidereal Time
21:23:33
Azimuth
Unknown
Elevation
Unknown
Doppler factor
Unknown
Orbital elements
Apogee altitude
794.376 km
Perigee altitude
697.683 km
Semi-major axis
7,124.166 km
Eccentricity
0.00679
Inclination
98.855°
RAAN
243.0763°
Arg. of periapsis
262.3203°
True anomaly
97.79849°
Mean anomaly
97.0275°
Eccentric anomaly
97.41308°
Mean motion
3.60946 °/min
Orbital period
99.74 mins
BSTAR
0.000035732
Loading maneuver chart data...
Computing Atmospheric mass density...
Loading historical data...
Loading historical data...
Loading historical data...
Loading historical data...
Loading historical data...
Loading historical data...
Loading historical data...

Documentation

Showing up to 5 results
|